Find Starlink 5882

NORAD ID: 55936 Int'l Des: 2023-037 Owner: SPXS Country: US Constellation: starlink operational
LEOCIRCULAR

当前视图

正在加载3D地球...

About Starlink 5882

Starlink 5882 (NORAD 55936) is a starlink constellation satellite (v1.5) launched Mar 17, 2023 by SPXS of US. It operates in LEO, CIRCULAR orbit with a mass of 305.00 kg.

关于 Starlink 5882

正在加载描述...

即将过境

Passes for default location (London). Set your location on the main map for personalized predictions.

高度历史

Loading altitude history...

两行轨道根数

1 55936U 23037Y 26169.00585349 -.00000264 00000-0 -14347-4 0 9998
2 55936 69.9997 11.3610 0002782 260.3984 99.6861 14.98337841179501
Epoch: Jun 18, 2026 • Age: 13 hours

当前状态

高度 574.7 km
速度 7.57 km/s
星下点 1.21°N, 90.79°W
发射日期 Mar 17, 2023
运行时间 3.2 years
类型 internet

技术详情

分类 Payload
质量 305.00 kg
干质量 290.00 kg
总质量 305.00 kg
长度 0.20 m
直径 2.80 m
跨度 9.00 m
形状 Box + pan
制造商 SPXS
平台类型 Starlink
阶段状态 In Orbit
所有者/国家 SPXS/US

Most Searched